Location: Mentone
(34.5413°N, 85.5351°W)
Time: 19:18:47
(UTC-06:00)

Vanguard 2 Rocket - Visible Passes

Search period start: 08 February 2016 00:00
Search period end: 18 February 2016 00:00
Orbit: 554 x 3329 km, 32.9° (Epoch: 08 February)

Date Brightness Start Highest point End Pass type
(mag) Time Alt. Az. Time Alt. Az. Time Alt. Az.
08 Feb 8.0 03:57:58 40° S 03:58:54 42° SSE 04:07:53 10° E visible
08 Feb 8.3 06:04:54 10° WSW 06:12:37 81° S 06:26:54 10° E visible
09 Feb 9.1 03:02:23 22° ESE 03:02:23 22° ESE 03:06:22 10° E visible
09 Feb 7.8 05:08:14 22° WSW 05:12:56 72° SSE 05:24:48 10° E visible
10 Feb 7.4 04:12:37 52° SSW 04:13:40 57° SSE 04:23:10 10° E visible
11 Feb 8.6 03:16:59 30° ESE 03:16:59 30° ESE 03:21:56 10° E visible
11 Feb 7.8 05:22:50 19° WSW 05:28:01 80° S 05:39:58 10° E visible
12 Feb 7.1 04:27:10 53° SW 04:28:39 71° SSE 04:38:21 10° E visible
13 Feb 8.0 03:31:29 41° ESE 03:31:29 41° ESE 03:37:13 10° E visible
13 Feb 7.8 05:37:19 14° W 05:43:11 81° S 05:55:08 10° E visible
14 Feb 9.6 02:35:46 13° E 02:35:46 13° E 02:36:32 10° E visible
14 Feb 7.2 04:41:37 44° WSW 04:43:46 79° S 04:53:31 10° E visible
15 Feb 7.4 03:45:54 55° ESE 03:45:54 55° ESE 03:52:24 10° E visible
15 Feb 7.9 05:51:52 10° W 05:58:21 75° S 06:10:12 10° ESE visible
16 Feb 9.2 02:50:11 17° E 02:50:11 17° E 02:51:50 10° E visible
16 Feb 7.2 04:56:01 33° W 04:58:56 79° S 05:08:40 10° E visible
17 Feb 6.9 04:00:18 71° SE 04:00:18 71° SE 04:07:35 10° E visible
